TimeEST,TemperatureF,Dew PointF,Humidity,Sea Level PressureIn,VisibilityMPH,Wind Direction,Wind SpeedMPH,Gust SpeedMPH,PrecipitationIn,Events,Conditions,WindDirDegrees,DateUTC
12:35 AM,62.6,53.6,72,30.10,10.0,SW,9.2,-,N/A,,Clear,220,2013-01-14 05:35:00
12:55 AM,62.6,53.6,72,30.11,10.0,SW,9.2,-,N/A,,Clear,230,2013-01-14 05:55:00
1:15 AM,62.6,53.6,72,30.11,10.0,SW,9.2,-,N/A,,Clear,220,2013-01-14 06:15:00
1:35 AM,62.6,53.6,72,30.11,10.0,SW,10.4,-,N/A,,Clear,220,2013-01-14 06:35:00
1:55 AM,62.6,53.6,72,30.12,10.0,SW,8.1,-,N/A,,Clear,230,2013-01-14 06:55:00
2:15 AM,62.6,53.6,72,30.11,10.0,SW,9.2,-,N/A,,Clear,220,2013-01-14 07:15:00
2:35 AM,62.6,53.6,72,30.12,10.0,SW,8.1,-,N/A,,Clear,230,2013-01-14 07:35:00
2:55 AM,60.8,53.6,77,30.12,10.0,SW,6.9,-,N/A,,Clear,220,2013-01-14 07:55:00
3:15 AM,60.8,53.6,77,30.12,10.0,SSW,6.9,-,N/A,,Clear,210,2013-01-14 08:15:00
3:35 AM,60.8,53.6,77,30.12,10.0,SW,9.2,-,N/A,,Clear,220,2013-01-14 08:35:00
3:55 AM,60.8,53.6,77,30.12,10.0,SW,8.1,-,N/A,,Clear,230,2013-01-14 08:55:00
4:35 AM,59.0,53.6,82,30.11,10.0,SW,5.8,-,N/A,,Clear,220,2013-01-14 09:35:00
4:55 AM,59.0,53.6,82,30.11,10.0,SW,5.8,-,N/A,,Clear,220,2013-01-14 09:55:00
5:15 AM,59.0,53.6,82,30.11,10.0,SSW,6.9,-,N/A,,Mostly Cloudy,210,2013-01-14 10:15:00
5:35 AM,59.0,53.6,82,30.11,10.0,SSW,8.1,-,N/A,,Mostly Cloudy,210,2013-01-14 10:35:00
5:55 AM,59.0,53.6,82,30.11,10.0,SW,8.1,-,N/A,,Partly Cloudy,220,2013-01-14 10:55:00
6:15 AM,59.0,53.6,82,30.11,10.0,SW,9.2,-,N/A,,Mostly Cloudy,220,2013-01-14 11:15:00
6:35 AM,59.0,53.6,82,30.11,10.0,SW,10.4,-,N/A,,Overcast,220,2013-01-14 11:35:00
6:55 AM,60.8,53.6,77,30.12,10.0,SW,9.2,-,N/A,,Overcast,220,2013-01-14 11:55:00
7:15 AM,59.0,53.6,82,30.12,10.0,SW,9.2,-,N/A,,Overcast,220,2013-01-14 12:15:00
7:35 AM,59.0,53.6,82,30.13,10.0,SW,6.9,-,N/A,,Overcast,220,2013-01-14 12:35:00
7:55 AM,60.8,53.6,77,30.14,10.0,SW,8.1,-,N/A,,Overcast,220,2013-01-14 12:55:00
8:15 AM,60.8,53.6,77,30.14,10.0,SSW,10.4,-,N/A,,Overcast,210,2013-01-14 13:15:00
8:35 AM,60.8,55.4,82,30.14,10.0,SSW,10.4,-,N/A,,Overcast,200,2013-01-14 13:35:00
8:55 AM,62.6,55.4,77,30.15,10.0,SW,9.2,-,N/A,,Partly Cloudy,220,2013-01-14 13:55:00
9:15 AM,62.6,55.4,77,30.15,10.0,SSW,10.4,-,N/A,,Scattered Clouds,210,2013-01-14 14:15:00
9:35 AM,64.4,55.4,73,30.16,10.0,SW,9.2,-,N/A,,Mostly Cloudy,220,2013-01-14 14:35:00
9:55 AM,64.4,57.2,77,30.17,10.0,WSW,9.2,-,N/A,,Partly Cloudy,240,2013-01-14 14:55:00
10:15 AM,66.2,57.2,73,30.16,10.0,WSW,9.2,-,N/A,,Partly Cloudy,240,2013-01-14 15:15:00
10:35 AM,68.0,57.2,68,30.15,10.0,SW,8.1,-,N/A,,Partly Cloudy,230,2013-01-14 15:35:00
10:55 AM,69.8,57.2,64,30.15,10.0,SW,11.5,16.1,N/A,,Clear,230,2013-01-14 15:55:00
11:15 AM,71.6,59.0,64,30.14,10.0,SW,13.8,19.6,N/A,,Clear,230,2013-01-14 16:15:00
11:35 AM,71.6,59.0,64,30.13,10.0,SW,15.0,24.2,N/A,,Scattered Clouds,230,2013-01-14 16:35:00
11:55 AM,71.6,59.0,64,30.12,10.0,SW,12.7,17.3,N/A,,Scattered Clouds,230,2013-01-14 16:55:00
12:15 PM,71.6,59.0,64,30.12,10.0,WSW,12.7,17.3,N/A,,Mostly Cloudy,240,2013-01-14 17:15:00
12:35 PM,73.4,60.8,65,30.11,10.0,WSW,10.4,-,N/A,,Overcast,240,2013-01-14 17:35:00
12:55 PM,71.6,59.0,64,30.10,10.0,WSW,8.1,18.4,N/A,,Overcast,250,2013-01-14 17:55:00
1:15 PM,73.4,60.8,65,30.09,10.0,WSW,6.9,-,N/A,,Overcast,240,2013-01-14 18:15:00
1:35 PM,73.4,60.8,65,30.09,10.0,Calm,Calm,-,N/A,,Overcast,0,2013-01-14 18:35:00
1:55 PM,73.4,60.8,65,30.09,10.0,SW,8.1,-,N/A,,Overcast,220,2013-01-14 18:55:00
2:15 PM,75.2,60.8,61,30.09,10.0,SW,11.5,-,N/A,,Overcast,220,2013-01-14 19:15:00
2:35 PM,75.2,60.8,61,30.09,10.0,SW,9.2,-,N/A,,Scattered Clouds,220,2013-01-14 19:35:00
3:15 PM,75.2,59.0,57,30.09,10.0,SSW,10.4,-,N/A,,Mostly Cloudy,200,2013-01-14 20:15:00
3:35 PM,75.2,59.0,57,30.10,10.0,SW,12.7,17.3,N/A,,Mostly Cloudy,220,2013-01-14 20:35:00
3:55 PM,75.2,59.0,57,30.10,10.0,SW,10.4,-,N/A,,Mostly Cloudy,220,2013-01-14 20:55:00
4:15 PM,73.4,59.0,61,30.11,10.0,South,8.1,-,N/A,,Overcast,190,2013-01-14 21:15:00
4:35 PM,73.4,59.0,61,30.11,10.0,SSW,11.5,-,N/A,,Overcast,200,2013-01-14 21:35:00
5:15 PM,73.4,57.2,57,30.13,10.0,SSW,9.2,-,N/A,,Overcast,200,2013-01-14 22:15:00
5:35 PM,71.6,57.2,60,30.13,10.0,South,6.9,-,N/A,,Overcast,190,2013-01-14 22:35:00
5:55 PM,71.6,57.2,60,30.13,10.0,South,4.6,-,N/A,,Mostly Cloudy,190,2013-01-14 22:55:00
6:15 PM,71.6,57.2,60,30.13,10.0,South,4.6,-,N/A,,Overcast,180,2013-01-14 23:15:00
6:35 PM,71.6,57.2,60,30.13,10.0,South,3.5,-,N/A,,Overcast,170,2013-01-14 23:35:00
6:55 PM,69.8,57.2,64,30.13,10.0,South,5.8,-,N/A,,Mostly Cloudy,180,2013-01-14 23:55:00
7:15 PM,69.8,57.2,64,30.13,10.0,South,5.8,-,N/A,,Partly Cloudy,190,2013-01-15 00:15:00
7:35 PM,69.8,57.2,64,30.12,10.0,South,9.2,-,N/A,,Scattered Clouds,190,2013-01-15 00:35:00
7:55 PM,69.8,57.2,64,30.13,10.0,SSW,10.4,16.1,N/A,,Partly Cloudy,200,2013-01-15 00:55:00
8:15 PM,69.8,57.2,64,30.13,10.0,SSW,9.2,-,N/A,,Clear,200,2013-01-15 01:15:00
8:35 PM,69.8,57.2,64,30.12,10.0,SSW,9.2,-,N/A,,Clear,200,2013-01-15 01:35:00
8:55 PM,69.8,57.2,64,30.13,10.0,SSW,11.5,-,N/A,,Clear,210,2013-01-15 01:55:00
9:15 PM,69.8,57.2,64,30.13,10.0,SSW,10.4,-,N/A,,Mostly Cloudy,210,2013-01-15 02:15:00
9:35 PM,68.0,57.2,68,30.12,10.0,SSW,9.2,-,N/A,,Partly Cloudy,200,2013-01-15 02:35:00
9:55 PM,68.0,57.2,68,30.11,10.0,SSW,8.1,-,N/A,,Clear,200,2013-01-15 02:55:00
10:15 PM,68.0,57.2,68,30.12,10.0,SSW,10.4,-,N/A,,Clear,200,2013-01-15 03:15:00
10:35 PM,66.2,57.2,73,30.12,10.0,SSW,10.4,-,N/A,,Clear,210,2013-01-15 03:35:00
10:55 PM,66.2,57.2,73,30.12,10.0,SSW,10.4,-,N/A,,Clear,200,2013-01-15 03:55:00
11:15 PM,66.2,57.2,73,30.12,10.0,SSW,10.4,-,N/A,,Clear,200,2013-01-15 04:15:00
11:35 PM,64.4,57.2,77,30.12,10.0,SSW,8.1,-,N/A,,Clear,200,2013-01-15 04:35:00
11:55 PM,64.4,57.2,77,30.12,10.0,SSW,10.4,-,N/A,,Clear,210,2013-01-15 04:55:00